GFSSW_850_temp_066.txt.gz
Temp
9 9 9 8 9 9 9 9 9 9 10 10 10 11 11 13 15 16 17 20 20 20 21 21 22 22 23 22 23 23 26 27 26 25 26 23 24 21 20 22 20 20 20 19 18
9 10 9 8 8 9 9 9 9 9 9 10 10 10 11 12 14 16 20 20 20 20 20 21 21 22 23 23 22 25 26 27 27 27 26 24 25 22 22 22 21 20 18 18 19
8 9 9 8 8 8 8 9 9 9 9 9 10 10 10 12 13 17 19 20 20 20 20 20 21 22 23 23 24 25 27 26 24 25 25 24 23 22 23 23 24 22 19 17 17
6 6 7 8 8 8 8 8 8 9 9 9 9 10 10 11 18 17 19 20 20 20 20 20 21 22 23 25 24 25 23 24 23 22 23 24 23 22 22 24 21 20 19 18 18
6 5 7 7 8 8 8 8 8 8 9 9 9 10 11 11 14 17 18 20 20 20 19 20 21 22 24 24 24 25 24 22 21 21 22 21 22 24 22 19 20 19 18 18 18
6 6 6 7 7 7 8 8 8 9 9 9 9 9 9 12 16 17 18 18 19 19 19 19 21 21 21 22 23 22 23 22 21 21 21 23 21 21 21 18 18 17 18 18 17
6 6 6 7 7 7 8 8 9 9 9 9 9 9 8 13 16 17 17 18 18 19 19 19 20 20 20 21 19 21 23 22 22 22 22 21 22 23 20 18 18 18 18 17 17
5 6 6 6 7 7 8 9 9 9 9 9 9 8 10 15 15 17 17 18 18 19 19 20 20 20 21 19 20 22 23 23 21 21 20 21 25 23 19 19 19 19 18 17 16
7 6 6 7 8 8 8 9 9 9 9 9 9 8 13 15 16 17 18 18 18 18 19 19 20 20 20 23 22 21 22 23 23 21 21 21 24 21 18 18 20 19 18 17 16
9 8 9 9 8 8 9 9 9 9 9 9 8 9 14 17 17 18 18 18 18 18 18 19 21 22 22 23 22 21 21 23 23 22 20 21 22 23 18 18 19 19 19 17 17
9 9 9 9 9 9 9 9 9 9 9 12 13 13 14 15 17 17 18 18 18 19 21 20 21 21 23 23 23 22 22 22 21 20 21 23 22 23 22 18 18 19 19 17 17
9 9 9 9 9 9 10 10 10 10 12 12 12 12 14 15 18 17 18 19 20 20 20 20 21 23 22 21 22 22 21 22 20 19 20 22 22 23 20 19 18 18 18 18 17
10 10 9 9 10 10 10 11 10 9 12 13 13 13 15 16 17 18 18 19 21 20 20 21 21 20 21 19 21 21 21 22 21 19 19 19 22 21 20 18 17 16 16 17 17
10 11 10 10 10 11 11 11 10 10 16 16 16 16 16 16 17 17 18 18 20 21 21 21 19 19 20 21 22 21 20 20 19 20 21 19 22 22 20 20 19 18 16 15 15
11 11 11 11 11 11 11 11 12 11 15 16 17 16 16 17 17 17 18 18 20 20 20 20 19 20 20 21 20 20 19 19 18 19 19 19 19 23 19 20 20 18 15 14 14
11 11 11 12 12 11 12 12 12 14 15 16 16 17 18 16 17 17 17 17 17 19 20 19 17 19 19 17 18 17 18 18 17 18 19 19 19 21 20 18 18 17 15 14 13
12 12 12 12 11 12 12 12 15 14 16 16 16 17 18 17 17 18 18 19 20 19 20 19 18 18 18 19 18 19 20 21 20 19 20 16 17 20 18 16 15 14 14 13 13
12 12 12 12 12 12 12 15 14 16 16 16 16 17 17 17 16 17 17 18 17 19 20 20 18 18 17 18 20 19 20 21 20 21 20 16 18 19 16 14 14 13 13 14 13
13 12 12 13 13 13 12 16 17 16 16 16 17 18 17 17 18 16 17 18 16 16 21 20 18 16 16 16 17 17 18 17 18 16 18 20 19 18 17 16 15 14 14 13 12
13 12 13 13 13 12 15 17 17 15 15 15 16 17 18 15 17 17 17 15 15 14 15 18 18 15 15 16 15 17 16 18 18 19 19 20 19 21 17 16 16 15 14 12 12
12 12 13 13 13 14 17 17 16 14 14 17 17 17 17 17 17 17 16 14 14 14 15 17 19 15 16 17 18 16 17 16 17 18 19 19 20 18 18 16 15 14 12 12 11
11 15 13 13 15 14 18 15 13 15 14 15 16 16 17 16 17 16 16 14 10 13 16 14 18 18 17 14 14 15 17 18 18 18 16 17 18 16 16 15 14 13 11 11 10
12 13 13 13 17 18 15 15 14 15 15 16 16 15 15 16 16 15 14 10 10 13 15 15 16 18 16 15 14 16 15 15 15 15 17 17 19 15 14 13 12 12 12 11 10
12 15 12 12 12 16 16 16 16 12 14 14 15 15 16 15 14 14 13 11 10 11 10 13 15 17 19 17 16 15 14 14 17 16 18 17 18 14 14 14 12 11 11 11 10
12 15 13 16 15 15 15 15 15 15 13 13 15 15 16 15 15 14 13 11 11 10 11 14 17 15 14 14 14 15 15 14 15 17 16 17 16 16 15 15 13 12 11 10 10
12 13 11 12 11 14 13 16 16 14 15 15 15 14 15 16 16 15 14 14 15 11 13 12 15 14 15 12 12 13 14 14 14 14 14 15 14 16 13 12 11 11 10 10 10
11 12 12 10 13 15 16 17 16 15 12 12 14 15 14 12 11 10 10 11 13 14 13 14 14 14 16 12 13 15 15 14 14 13 15 14 16 12 12 11 11 10 10 9 8

GFSSW_850_temp_072.txt.gz
Temp
12 12 12 12 12 10 9 9 9 10 10 10 11 11 12 12 14 15 14 20 18 19 20 21 21 22 22 22 23 24 23 23 25 27 27 28 27 26 26 25 25 25 24 24 22
12 11 11 11 11 10 9 9 9 9 9 10 10 11 11 12 13 15 20 19 19 19 19 20 21 22 22 23 24 23 22 25 27 27 27 27 27 26 26 26 25 24 23 22 21
12 11 10 10 10 9 9 9 9 9 9 9 10 10 11 11 12 18 17 19 20 19 19 19 21 22 22 24 24 25 23 26 27 28 28 27 27 26 26 24 26 24 23 22 21
12 11 9 9 8 8 8 8 9 9 9 9 9 10 11 11 15 17 17 18 19 19 18 18 20 22 23 22 24 21 25 27 27 25 27 27 27 26 26 25 26 26 24 22 21
11 10 9 8 8 8 8 8 9 9 9 9 9 10 10 11 12 18 17 17 18 19 18 19 21 22 22 23 24 21 23 25 26 25 27 27 27 26 26 25 24 24 23 22 21
10 9 8 7 7 7 8 8 9 9 9 9 10 10 8 10 15 15 17 17 16 18 19 20 21 23 23 24 23 24 24 24 24 25 26 26 25 24 25 25 23 23 23 22 22
10 9 8 7 7 8 8 9 9 10 10 10 9 9 8 10 14 15 16 16 17 18 18 20 21 23 23 23 23 22 22 21 22 24 24 23 24 22 25 24 23 23 23 22 22
10 10 9 9 9 9 9 9 10 10 10 9 9 9 8 15 13 14 16 15 17 18 19 21 21 22 23 22 22 21 22 20 21 22 20 22 22 23 24 23 24 23 23 22 21
10 10 10 10 10 10 10 10 11 10 10 9 9 8 11 14 14 15 15 16 18 18 19 20 21 21 22 21 21 20 19 20 21 21 20 20 21 22 23 23 24 23 23 22 21
11 10 10 10 10 10 11 11 11 11 10 9 8 10 12 16 16 17 17 17 19 19 19 20 20 21 21 20 19 21 21 21 21 20 19 17 17 20 21 23 23 23 23 23 21
11 11 11 10 11 11 11 12 12 10 10 12 13 13 14 15 16 17 19 18 19 20 19 20 19 20 21 22 23 24 22 22 20 21 19 18 20 21 23 23 22 22 22 22 22
11 11 11 11 12 12 11 10 12 10 11 12 13 13 14 15 16 19 19 19 20 19 20 19 19 22 23 24 23 24 23 21 19 20 21 20 19 20 21 22 20 20 21 21 22
12 12 12 12 12 12 11 10 10 10 11 14 16 16 16 16 17 19 19 19 20 19 20 19 22 23 24 24 24 23 23 23 22 20 21 20 18 19 21 21 20 20 20 19 20
12 12 12 12 11 10 11 11 10 10 11 17 17 17 17 17 19 19 18 19 21 20 20 22 21 23 22 22 22 21 23 22 22 20 19 19 18 21 19 19 20 19 18 18 19
11 12 12 11 11 11 10 11 11 10 13 18 18 17 18 18 18 19 18 18 19 21 21 21 19 20 21 21 23 21 21 20 21 20 20 19 18 20 20 19 18 18 17 17 17
11 11 11 11 11 12 11 10 10 12 15 17 18 19 18 18 19 18 18 19 19 20 19 21 22 20 21 20 21 21 20 21 21 19 17 20 19 19 19 18 17 17 16 16 16
12 11 11 11 12 11 10 11 12 12 17 16 17 18 18 18 19 19 19 19 18 19 19 19 20 20 20 18 20 20 19 17 17 16 17 21 20 17 17 17 17 16 16 16 16
12 12 12 12 12 12 11 14 13 17 17 15 18 18 17 17 19 19 19 18 20 17 19 18 17 18 20 20 19 19 20 18 19 18 18 20 19 15 17 17 17 16 16 15 15
11 12 12 14 12 12 11 15 17 17 18 16 13 15 13 16 18 19 19 19 17 18 17 17 18 18 19 20 19 19 18 19 19 20 19 19 17 17 17 16 17 16 15 15 14
11 12 12 12 12 11 14 16 18 18 17 16 12 13 11 15 18 18 19 17 18 17 18 19 17 19 18 18 19 18 19 18 18 18 18 20 18 16 15 15 15 15 15 14 14
11 11 13 13 13 13 15 18 19 18 16 17 17 15 15 17 17 17 18 16 17 17 16 18 20 17 18 17 18 17 18 18 18 18 17 17 16 18 16 16 15 15 15 15 14
11 13 14 13 13 16 18 18 17 19 17 17 17 18 18 17 14 16 19 16 14 15 17 17 17 17 18 17 17 18 19 19 17 18 18 16 15 18 17 17 17 16 15 14 13
10 13 13 13 14 18 20 20 18 18 18 18 18 18 18 18 17 18 17 13 13 15 14 14 18 16 16 16 17 17 19 19 18 16 16 15 15 17 17 17 17 15 14 13 12
10 14 14 12 14 16 17 19 20 16 17 17 18 17 18 18 18 17 16 14 13 14 13 13 17 18 16 17 18 17 18 18 17 15 17 17 15 15 15 15 16 15 14 13 13
10 13 15 15 16 17 18 18 19 19 16 17 18 17 17 18 18 17 15 14 13 13 15 15 16 18 17 17 17 17 18 17 16 17 16 18 18 16 15 14 16 15 14 14 13
11 13 11 12 16 17 17 18 18 19 19 19 17 18 18 17 16 16 16 16 17 14 15 15 16 17 17 17 17 16 17 17 17 17 17 16 16 15 17 17 16 15 14 13 13
9 10 11 12 14 16 17 18 18 19 17 16 16 17 17 15 15 15 16 15 16 15 15 15 15 15 16 17 17 15 16 16 17 17 17 14 14 15 14 15 15 14 14 13 11

GFSSW_850_temp_075.txt.gz
Temp
13 13 12 13 12 12 11 11 10 10 10 10 10 11 11 12 13 15 17 20 19 20 20 20 21 21 21 21 22 23 20 20 22 22 24 26 25 26 25 25 25 24 23 24 21
13 13 12 12 12 11 10 10 9 9 9 10 10 10 11 11 13 16 17 19 19 19 20 20 21 20 21 22 23 21 18 21 24 22 25 26 25 25 25 24 23 23 23 22 21
12 12 11 11 11 9 9 9 9 9 9 9 10 10 10 10 12 16 16 16 17 19 19 19 20 19 21 22 22 22 20 22 25 25 25 26 25 26 24 23 24 23 22 21 21
12 12 11 11 10 9 9 9 9 9 9 10 10 10 10 10 12 16 17 17 17 18 18 19 19 19 20 20 23 22 22 22 23 25 25 25 26 25 25 24 25 25 23 21 21
12 11 11 11 10 9 8 9 9 9 9 10 10 10 9 9 11 17 17 17 16 16 18 18 19 20 19 20 22 20 19 22 24 24 24 25 24 24 25 24 24 24 23 22 21
11 11 11 10 9 9 9 9 9 9 10 9 9 9 9 7 16 16 15 15 16 16 17 17 19 20 22 21 20 21 21 21 22 22 22 22 23 25 24 24 24 23 22 22 21
11 11 10 10 10 10 10 10 10 10 10 10 9 9 7 12 14 14 14 15 16 15 17 18 20 19 22 21 22 22 20 20 20 21 19 22 20 20 23 23 23 23 22 21 21
11 11 10 10 10 10 11 11 11 11 11 10 9 8 8 14 14 15 16 15 16 17 16 19 19 20 20 22 21 20 19 18 20 20 19 20 20 19 22 23 23 23 22 22 21
11 11 11 11 11 11 11 12 12 11 11 10 9 8 8 14 14 15 15 15 16 17 18 18 19 19 21 19 18 18 17 18 19 20 18 18 19 19 21 21 22 22 23 22 21
11 11 11 11 11 11 12 12 12 11 11 10 9 8 12 14 15 15 16 16 16 17 18 18 19 17 17 16 16 17 18 18 17 18 18 17 17 16 21 21 21 23 22 22 21
11 11 11 11 11 11 12 12 11 11 10 10 12 12 13 15 15 16 17 17 16 17 16 19 16 15 17 18 19 19 18 18 18 18 17 15 17 17 21 21 21 22 22 21 21
11 11 11 11 11 11 11 11 10 9 9 12 13 12 13 14 13 17 18 16 17 16 17 16 15 17 19 19 19 19 18 17 17 19 18 16 17 18 19 20 21 20 20 21 20
13 11 11 11 11 11 10 10 10 10 9 12 15 15 15 16 14 17 18 18 17 16 15 15 17 18 18 20 19 19 18 15 17 16 18 18 17 17 19 19 20 20 19 19 19
14 13 12 12 11 11 11 10 11 10 8 14 16 16 17 16 16 18 18 17 18 16 15 15 16 19 18 19 20 19 20 20 18 16 15 17 15 17 17 17 16 17 18 18 18
14 14 12 11 11 11 11 11 10 11 11 16 17 17 17 17 17 18 18 18 16 15 15 16 16 18 19 19 18 18 19 18 18 17 16 18 15 15 15 15 15 15 16 17 17
13 14 13 12 12 10 10 11 10 11 12 16 17 16 17 17 17 18 18 18 17 15 16 16 18 17 18 17 18 18 17 15 16 15 15 16 15 15 15 14 14 14 16 16 16
13 13 14 13 12 11 11 11 10 11 16 15 15 16 15 15 17 18 17 16 14 14 14 16 16 17 16 16 16 16 14 13 14 14 14 16 15 15 15 14 13 13 15 15 16
13 13 14 14 13 11 10 9 11 16 16 15 14 15 13 15 16 17 17 15 15 16 14 15 16 17 17 15 17 16 15 13 16 13 15 18 15 14 14 15 15 15 15 15 15
13 13 14 15 13 12 9 10 13 15 16 14 14 13 12 14 15 15 17 16 15 14 14 14 15 16 16 16 16 17 16 16 16 18 14 14 15 15 14 13 13 14 14 14 14
12 13 15 14 14 11 8 11 16 17 15 14 13 12 12 13 14 15 17 15 16 16 16 14 15 16 16 18 18 17 17 16 14 17 16 16 13 13 12 12 12 12 13 13 13
12 13 13 13 12 11 8 11 17 17 17 16 14 13 13 14 15 15 16 15 13 14 15 16 15 14 16 16 16 15 16 16 15 14 14 14 13 13 12 13 11 12 13 13 13
11 9 13 13 11 11 10 15 17 18 16 16 16 15 13 14 14 15 16 15 13 13 14 15 14 13 16 16 16 16 17 15 13 16 14 11 12 13 13 13 13 13 14 13 13
10 12 12 12 10 10 13 15 16 17 16 17 16 17 17 16 15 15 14 13 13 13 13 13 14 13 14 14 15 16 17 17 14 11 14 11 13 13 13 12 13 13 13 13 12
10 8 12 11 12 12 11 13 15 17 16 17 16 17 16 16 16 16 14 13 13 13 13 12 13 13 13 15 14 15 17 17 13 11 12 12 13 14 13 12 12 13 13 13 12
10 9 12 9 11 11 12 13 14 15 16 16 15 16 15 15 15 16 14 13 13 13 13 12 14 15 16 16 16 16 16 16 15 14 14 15 14 12 12 11 13 14 13 13 12
9 10 10 10 12 11 11 13 14 15 16 16 15 15 16 15 14 14 15 14 15 13 14 12 13 15 16 16 16 15 16 15 14 15 15 15 14 14 13 14 13 14 13 12 11
8 9 9 9 9 10 11 13 13 14 16 16 15 14 15 14 14 15 15 14 14 13 12 12 12 11 14 15 15 13 13 14 15 16 15 14 13 13 12 12 13 13 13 11 10

GFSSW_850_temp_078.txt.gz
Temp
14 14 13 13 12 12 12 11 11 10 10 10 10 11 11 11 13 15 17 18 18 19 19 19 20 20 20 21 22 22 18 18 20 20 21 24 24 24 25 24 24 23 23 23 20
13 13 13 12 12 12 11 10 10 9 10 10 10 10 11 11 13 16 17 17 18 18 18 19 20 20 20 21 22 20 17 18 21 22 22 24 25 25 24 22 22 23 23 22 20
13 13 12 11 11 11 10 9 9 9 9 9 10 10 10 10 12 15 16 15 16 16 17 18 18 18 19 20 21 20 19 17 23 23 24 24 24 25 22 22 22 23 23 21 20
12 12 11 11 11 10 10 9 9 9 9 9 9 9 10 10 12 16 16 16 16 16 17 18 17 17 18 19 21 20 21 21 22 22 23 23 24 23 24 25 25 25 24 21 20
11 11 11 11 11 11 10 10 10 10 9 9 9 9 9 8 12 16 15 16 16 16 16 17 17 18 18 19 21 19 20 21 22 22 22 24 23 23 23 24 25 23 22 21 20
12 11 11 11 11 11 11 10 10 10 10 10 9 9 8 7 15 14 14 16 16 15 15 16 17 19 19 20 19 21 20 21 22 21 20 21 21 23 22 23 24 23 22 21 21
13 12 11 11 11 11 11 11 11 11 11 10 9 8 7 12 14 14 14 15 16 14 14 15 18 17 19 20 21 21 18 19 20 21 18 19 20 18 21 22 23 21 21 21 21
13 12 11 11 11 11 11 11 11 11 11 10 9 7 9 14 14 15 14 15 15 15 15 15 16 17 17 20 20 19 18 17 19 19 18 20 19 18 20 21 21 21 21 21 21
13 13 12 12 12 11 12 12 12 12 11 10 9 8 9 15 15 16 14 14 15 16 16 16 16 16 18 17 17 18 16 17 19 19 16 17 17 19 20 21 21 21 21 21 21
13 13 13 13 12 12 12 13 13 12 11 10 9 7 13 15 15 15 16 15 15 16 17 17 17 15 15 15 16 15 16 17 17 17 16 16 17 17 19 19 21 22 21 21 21
13 14 14 13 13 12 12 12 11 11 10 10 12 10 13 15 14 16 15 15 15 15 14 17 14 13 16 18 17 17 18 18 17 17 17 16 17 17 19 18 19 20 21 21 21
13 14 13 13 13 12 11 10 9 8 9 12 12 11 15 14 12 17 16 16 15 13 15 15 14 16 17 17 18 18 17 17 17 16 18 15 16 16 17 18 20 21 20 19 20
13 14 13 13 13 13 11 10 9 10 9 12 15 14 16 15 13 16 16 16 15 15 14 14 17 18 16 17 16 17 16 16 17 15 18 16 16 17 18 19 19 19 19 18 19
13 13 13 13 13 13 12 10 9 9 8 13 16 16 16 16 15 17 16 16 14 14 13 14 15 17 15 16 17 16 17 16 16 15 15 16 15 16 16 16 15 16 18 17 18
13 13 13 13 13 14 13 12 10 9 10 16 16 17 17 16 16 17 17 17 14 13 14 15 15 14 16 17 17 17 17 16 15 14 15 16 15 15 15 15 14 14 16 16 17
13 13 13 13 13 14 14 13 11 10 12 15 16 15 14 15 16 17 17 17 16 14 15 15 15 15 16 16 16 15 14 13 13 13 14 15 15 14 13 13 13 14 15 16 17
13 13 13 13 13 14 13 14 10 11 15 14 14 15 14 14 15 17 16 14 14 13 12 14 14 14 14 14 14 14 14 13 13 13 13 14 14 15 15 12 12 12 14 15 16
12 13 13 14 13 14 14 10 12 14 15 15 14 14 12 13 15 15 16 13 14 13 12 13 11 15 15 15 14 13 14 13 15 13 15 14 14 15 13 13 14 14 14 14 15
12 13 14 13 13 13 14 9 11 14 15 14 14 11 11 13 13 14 15 14 14 13 13 13 14 16 15 15 16 16 15 16 14 14 13 13 14 13 12 11 11 12 13 13 14
12 12 13 13 13 13 10 11 12 16 14 14 13 12 12 13 13 13 15 14 14 15 15 15 14 15 16 16 16 16 16 16 13 15 15 13 13 12 11 10 10 10 12 12 12
12 11 13 13 12 12 10 10 13 16 15 14 14 13 12 12 13 14 14 13 13 14 13 15 14 14 16 15 14 15 15 14 14 12 13 13 12 11 11 11 10 10 12 12 12
11 9 12 11 11 8 9 12 15 15 16 15 15 14 13 13 14 14 15 15 13 13 15 14 12 13 14 15 15 15 16 14 12 15 11 9 11 13 11 11 12 12 12 12 12
10 11 11 11 8 8 10 13 14 14 15 15 15 16 16 15 15 14 14 13 12 13 14 13 13 12 14 14 15 15 16 14 11 9 12 10 12 11 10 10 12 12 12 12 12
10 8 11 11 10 11 11 11 13 16 15 16 15 16 15 15 14 14 15 13 13 13 13 12 12 13 12 14 13 15 15 15 12 11 12 11 13 13 10 10 11 12 12 12 12
9 8 9 8 9 10 11 11 13 13 15 16 15 14 15 14 14 15 14 13 13 13 13 12 13 14 14 15 15 15 15 14 14 13 13 14 12 12 10 10 12 13 12 12 12
9 9 9 9 9 9 10 12 11 12 13 14 14 14 15 14 14 14 13 13 13 12 13 10 13 14 15 15 15 15 15 15 14 14 15 14 14 13 13 12 12 12 12 12 11
8 8 8 8 7 8 8 11 11 11 13 15 14 13 13 14 14 14 14 13 12 13 11 11 11 11 13 13 14 13 13 13 14 14 14 12 12 12 11 11 12 13 12 12 10

GFSSW_850_temp_084.txt.gz
Temp
15 14 14 14 14 13 13 13 13 12 11 11 11 11 12 12 14 15 16 16 15 16 17 18 18 18 19 19 20 20 16 16 19 19 21 21 21 22 23 22 21 22 22 22 21
15 15 15 15 14 13 13 13 13 11 11 10 11 11 12 12 14 15 15 15 13 14 16 17 18 18 18 19 20 17 15 17 19 19 21 21 22 22 22 21 21 21 21 22 21
15 15 15 14 14 13 13 13 13 12 12 11 11 11 12 12 14 14 13 14 14 15 15 15 16 17 17 18 19 18 16 18 19 20 21 20 20 22 20 19 22 22 22 21 20
14 14 14 14 14 14 13 13 12 12 12 12 11 11 13 13 14 14 13 14 15 15 15 15 15 15 15 16 19 18 18 19 20 21 21 19 21 21 21 23 24 24 24 22 20
14 14 13 13 13 13 13 13 13 13 12 12 12 11 12 11 14 14 14 14 14 15 15 15 14 15 15 16 18 17 19 19 20 20 21 21 20 19 20 22 24 24 23 22 22
14 14 13 13 13 13 13 13 13 12 12 12 12 11 8 7 14 14 14 15 14 15 15 14 14 15 15 16 16 18 19 18 19 19 20 20 20 20 21 22 23 23 22 22 21
14 14 14 13 13 13 13 13 13 13 12 12 12 10 8 14 15 15 14 14 14 14 14 14 14 14 14 15 17 18 17 17 17 18 18 19 20 19 19 20 20 20 20 20 21
14 13 13 13 13 13 13 14 14 13 13 13 12 11 12 15 15 15 14 15 15 14 14 14 14 14 14 15 17 16 16 15 17 17 18 17 18 18 19 20 18 18 18 19 19
14 13 13 13 14 14 14 14 14 13 13 12 12 11 14 15 15 15 14 14 14 15 14 14 14 14 14 13 14 15 14 14 17 16 16 17 18 18 18 18 18 18 19 19 19
14 13 13 13 14 14 14 15 14 13 13 12 12 11 16 15 15 15 15 14 13 13 13 13 13 11 11 11 13 13 14 15 15 16 16 16 16 14 17 18 18 19 20 20 19
14 13 13 13 14 13 14 14 13 13 12 14 14 12 15 16 15 16 15 14 14 13 12 13 11 10 11 13 14 15 16 16 17 15 15 14 15 14 15 15 16 18 20 19 19
13 13 13 13 14 13 13 12 10 10 9 14 14 13 15 14 14 16 15 14 13 12 13 12 10 12 13 13 15 15 16 16 16 15 16 13 14 13 14 15 17 19 18 19 20
13 13 13 13 13 13 12 11 10 9 8 13 15 14 15 14 14 15 15 14 13 11 11 10 13 13 14 14 14 16 16 16 17 15 15 15 15 16 16 16 17 18 18 19 19
13 13 13 13 13 13 12 11 10 9 7 12 15 16 16 15 13 16 15 15 13 12 11 10 14 13 13 14 15 14 15 15 14 13 14 14 13 15 15 15 15 16 17 17 18
13 13 13 13 13 12 12 11 11 9 11 15 15 16 15 14 15 16 16 15 14 13 12 13 13 13 14 15 14 15 14 13 13 12 14 14 14 14 14 15 13 13 15 16 17
13 13 13 13 13 12 12 11 10 10 13 13 15 14 13 14 14 15 16 15 14 13 11 12 13 12 12 12 12 11 11 11 10 11 12 14 14 14 14 14 13 12 14 15 16
13 12 13 13 13 13 12 11 10 11 13 14 13 13 12 12 12 14 15 12 11 11 10 11 12 12 12 12 12 12 12 11 12 11 12 12 13 16 15 13 13 11 14 15 16
13 13 13 13 13 13 12 10 13 14 12 13 13 12 12 12 13 12 13 13 12 11 10 10 12 12 12 13 12 12 12 11 13 11 13 12 13 14 12 10 11 12 13 14 15
13 13 13 13 12 12 12 10 12 13 14 13 12 12 11 13 12 12 12 12 13 12 10 9 11 10 12 12 13 12 12 13 12 11 12 12 13 13 10 10 9 10 11 13 14
13 13 12 12 12 11 9 10 11 12 14 13 12 12 11 11 11 11 13 14 13 14 13 10 9 12 11 13 14 13 12 14 10 13 14 12 13 13 11 10 9 8 10 11 12
12 12 11 12 11 11 8 9 11 14 13 12 12 12 11 11 12 11 13 14 12 12 12 12 12 11 11 12 12 14 13 11 11 11 13 14 13 11 12 9 8 8 11 11 12
11 9 11 11 10 4 7 10 12 13 14 13 13 12 12 12 11 13 13 14 12 12 13 13 12 12 13 13 14 14 14 13 12 12 9 11 12 11 9 9 10 10 11 12 12
11 10 10 10 8 6 7 10 12 12 13 14 14 13 13 13 13 12 13 13 12 12 12 12 11 11 13 14 13 13 13 12 11 9 10 11 13 10 9 8 11 11 11 12 11
11 7 10 9 8 8 8 9 10 13 11 13 13 14 13 13 12 12 12 13 12 12 12 11 11 11 12 14 13 13 14 12 12 11 10 10 13 14 11 9 9 10 12 12 11
10 7 7 6 7 7 8 9 10 11 12 12 12 12 12 12 11 13 12 11 12 12 12 10 12 12 12 11 12 13 13 12 12 12 13 13 11 13 11 8 9 12 11 11 10
9 8 7 7 7 7 7 8 10 9 10 11 11 10 11 12 13 11 11 11 12 11 12 9 11 11 13 12 12 13 12 12 11 12 10 12 11 10 10 11 11 12 11 11 11
8 7 7 7 5 6 6 8 9 8 10 11 10 8 9 11 11 12 11 12 10 11 10 10 9 9 12 10 11 13 13 12 12 12 12 12 12 11 10 10 10 11 11 11 11

GFSSW_850_temp_090.txt.gz
Temp
15 15 15 14 14 14 14 14 14 14 14 15 15 14 14 15 15 16 14 14 14 15 16 17 17 17 17 18 18 19 22 23 24 24 26 24 25 22 23 23 23 23 24 22 19
15 15 15 15 14 15 14 14 14 14 15 15 15 15 15 15 15 13 15 14 14 14 15 15 16 16 18 19 19 21 22 23 25 26 26 25 25 23 23 23 23 22 20 20 18
15 15 15 15 15 14 14 14 14 14 14 14 14 15 15 15 14 14 14 14 15 15 15 15 15 16 18 19 20 21 21 24 23 23 24 25 23 23 24 24 25 24 21 19 18
15 14 15 15 14 14 14 15 14 14 14 14 14 14 15 15 18 15 14 14 14 15 15 14 15 17 18 19 20 20 21 22 22 23 22 24 24 23 24 25 23 23 22 19 19
15 15 15 14 14 14 14 14 14 14 14 14 14 14 15 14 15 15 14 14 15 15 15 14 16 16 17 19 19 20 21 22 21 22 22 23 23 24 23 23 20 21 21 20 20
14 15 15 14 14 14 15 15 15 15 15 15 15 14 14 17 15 15 14 14 14 15 14 14 16 15 16 17 18 20 20 20 21 21 21 22 23 22 24 22 20 20 21 20 20
14 15 15 15 15 15 15 15 16 15 15 15 15 15 14 16 15 15 15 14 14 14 14 14 14 14 15 17 17 17 18 20 21 21 21 21 22 22 24 20 21 20 21 20 19
15 15 15 15 15 15 15 16 16 16 15 15 15 14 14 16 16 16 15 15 15 14 14 13 13 14 14 16 17 18 19 19 21 21 21 21 22 24 22 21 22 20 20 18 18
15 15 15 14 15 15 15 15 16 16 15 16 15 13 16 16 15 15 15 15 15 15 14 13 13 14 15 16 17 18 18 20 20 21 21 21 22 25 21 21 22 21 20 18 18
14 14 14 14 14 15 15 15 16 15 15 15 15 14 16 16 16 16 15 15 14 13 13 13 14 16 16 17 16 18 18 19 20 21 20 20 21 21 19 20 21 20 20 20 19
14 14 14 14 14 15 15 15 14 14 13 14 14 13 16 16 16 15 15 14 13 14 16 15 15 16 17 17 17 17 17 18 20 21 20 21 21 21 19 19 20 20 19 19 19
14 14 14 14 14 14 14 13 11 11 11 15 15 14 16 15 14 15 15 15 15 16 16 15 15 17 17 16 15 16 16 17 19 21 20 21 21 22 20 20 20 20 20 20 20
14 14 14 14 14 14 13 12 11 10 11 14 15 14 15 14 15 16 15 15 16 16 15 14 16 17 16 15 15 15 16 17 18 19 19 21 21 22 20 19 19 20 20 20 19
13 13 14 14 13 13 13 12 12 10 15 18 17 16 15 15 15 15 15 15 16 15 15 14 15 15 15 15 16 14 17 17 18 16 17 20 20 22 22 21 20 20 19 18 17
13 13 13 14 13 13 12 12 12 10 17 18 18 16 16 15 15 16 15 14 16 15 14 14 15 14 15 16 17 15 17 17 16 17 18 18 20 23 21 21 22 21 20 18 17
13 13 13 13 13 13 13 12 11 15 17 18 17 17 18 16 17 15 16 14 13 14 13 14 14 14 15 15 16 17 16 15 15 15 16 20 20 22 22 22 23 22 20 18 17
13 13 13 13 13 13 13 12 17 17 17 17 17 17 16 17 17 16 17 16 15 14 11 12 14 14 13 15 15 16 16 14 13 11 15 19 19 22 21 20 20 19 18 17 15
13 13 13 13 13 12 13 15 16 16 16 16 16 16 16 16 18 16 17 17 15 14 11 9 11 14 14 14 15 17 17 14 13 17 18 17 19 21 19 16 15 15 17 15 14
13 13 12 12 12 12 12 17 17 16 15 15 16 16 17 16 15 16 17 16 16 15 13 10 11 15 14 14 14 14 15 10 10 17 19 19 20 20 17 16 15 15 15 13 13
13 12 11 12 11 12 15 15 15 14 14 15 15 15 16 17 16 17 17 16 15 15 15 12 10 14 14 15 15 15 14 12 11 16 18 19 19 21 19 18 16 15 15 12 11
13 12 11 11 11 12 15 15 14 13 13 15 15 15 16 15 15 16 17 16 15 15 14 13 12 12 14 15 15 16 15 16 16 16 17 19 20 19 19 17 17 16 14 12 11
12 14 11 11 13 11 14 12 11 13 13 14 14 15 15 15 15 16 16 16 12 13 15 15 15 11 13 16 15 15 16 17 16 16 16 18 19 17 17 16 16 15 12 11 10
11 11 11 10 14 14 12 12 12 13 14 14 14 14 15 15 15 15 16 15 13 14 15 15 16 16 15 16 15 16 16 16 17 17 17 17 19 17 17 16 15 14 12 10 9
11 14 10 10 9 11 12 13 13 12 12 12 13 14 14 15 15 15 15 15 13 13 12 12 15 15 16 15 14 15 16 16 17 17 17 18 19 20 18 16 14 13 12 11 10
11 12 10 14 12 11 10 11 12 13 12 12 13 12 12 13 14 14 15 15 15 12 14 14 15 15 16 16 15 15 15 15 15 17 16 17 17 19 18 16 15 14 12 11 10
10 10 8 9 7 10 10 12 11 12 12 14 13 12 12 12 14 13 13 14 14 14 14 14 15 14 15 15 15 14 15 15 15 15 16 17 17 15 14 14 14 14 12 12 11
10 10 9 8 9 10 12 11 10 10 11 11 11 11 12 13 11 11 11 12 12 12 13 13 14 15 16 15 15 16 16 15 15 15 16 17 16 15 15 14 14 13 12 12 11

GFSSW_850_temp_093.txt.gz
Temp
16 16 16 16 16 15 15 15 15 15 15 15 15 15 15 16 16 14 15 14 14 15 16 16 17 18 18 19 20 20 22 23 25 26 27 28 27 27 27 27 26 26 27 26 22
16 16 16 16 16 16 15 15 15 15 15 15 15 15 15 16 15 16 15 15 15 15 15 16 18 18 19 20 21 21 22 23 26 27 27 27 27 27 25 26 26 26 24 24 21
16 16 16 15 15 15 15 15 15 15 15 15 15 15 16 16 14 16 15 15 15 16 14 15 16 17 20 21 21 22 22 24 25 25 25 26 27 26 25 26 26 26 24 23 21
16 16 15 15 15 15 15 15 15 15 15 15 16 16 16 16 19 15 15 15 15 15 15 16 17 18 19 20 21 21 23 23 24 24 24 25 25 26 26 27 26 25 25 23 22
15 15 15 15 15 15 15 15 15 16 16 16 16 16 16 17 17 16 15 15 14 14 16 16 18 19 19 21 21 21 23 22 23 23 23 24 24 25 26 25 23 22 24 23 22
15 15 15 15 15 15 15 16 16 16 16 16 16 16 14 19 16 15 15 15 14 15 16 16 17 17 18 19 20 21 21 21 22 23 23 23 24 24 25 25 23 22 23 23 22
15 15 15 15 15 15 15 16 16 16 17 17 16 16 14 17 16 16 16 16 16 15 15 15 15 16 18 19 19 20 19 21 21 22 22 23 23 24 24 25 24 23 23 23 22
15 14 15 15 15 15 15 16 17 17 17 17 16 15 17 17 16 16 15 15 15 15 14 14 14 15 16 18 18 19 20 20 22 22 22 22 21 24 24 25 24 23 23 23 23
15 15 15 15 15 15 15 16 17 17 16 17 16 13 19 17 16 16 16 15 15 14 13 14 14 16 17 17 18 20 19 21 22 24 23 22 21 24 25 25 24 24 22 23 21
14 15 15 15 15 15 15 16 17 17 17 16 16 15 18 17 16 16 15 16 15 15 16 15 17 18 19 19 18 19 20 21 21 23 23 22 22 23 24 24 24 24 23 23 21
14 15 15 15 15 15 15 15 16 16 16 16 16 16 17 16 16 16 15 15 15 16 18 19 17 18 19 19 19 18 18 18 20 22 22 22 22 23 24 22 23 24 23 22 22
14 14 15 15 14 14 14 14 12 13 14 15 16 15 15 15 16 17 16 17 18 18 19 18 17 19 19 18 18 17 17 18 19 21 22 22 22 23 24 22 22 23 23 22 23
14 14 14 14 14 14 13 13 13 11 14 18 16 16 16 15 17 18 16 17 18 18 18 17 18 18 17 17 17 17 17 17 18 20 21 21 22 23 24 23 22 22 22 22 22
14 14 14 14 13 13 12 13 13 11 18 20 19 18 17 15 17 17 16 16 19 18 17 16 17 17 17 17 17 16 18 18 17 18 17 21 18 22 24 23 23 22 22 22 21
13 14 14 14 13 13 13 13 12 10 19 20 20 17 18 17 18 18 16 16 18 17 17 16 16 16 15 17 18 17 18 17 18 17 18 17 19 23 24 23 23 23 22 21 20
14 14 13 13 12 13 13 13 11 16 19 20 19 20 20 20 20 18 18 16 17 17 18 17 16 16 16 16 17 18 17 17 17 17 14 12 15 22 23 24 24 24 22 21 18
14 14 14 13 12 13 13 11 18 19 20 19 18 19 19 20 20 20 19 20 17 15 16 16 16 17 16 15 18 17 16 10 11 12 15 15 13 17 21 25 24 25 24 22 19
14 14 14 13 13 13 12 17 18 19 19 19 19 19 19 19 20 20 20 19 19 17 16 13 13 15 17 15 14 16 16 11 12 14 14 18 17 19 20 20 19 20 21 19 18
14 12 11 13 13 13 13 18 19 18 17 17 19 19 20 20 19 20 20 18 18 17 15 14 13 16 17 17 16 16 13 11 9 10 11 17 21 21 21 19 20 19 18 17 16
14 12 12 13 13 12 16 18 18 17 16 17 17 18 17 18 18 19 19 18 17 18 16 16 13 16 17 17 17 15 13 12 11 13 14 18 17 19 21 20 19 18 17 15 14
13 15 13 13 12 14 17 18 17 16 15 17 17 17 18 18 17 18 19 18 17 17 16 17 15 17 17 17 17 16 15 15 15 16 13 17 18 20 19 20 19 19 16 15 14
12 17 13 13 15 17 18 16 13 16 15 16 16 17 17 17 17 17 18 18 15 16 16 17 16 16 16 18 18 17 16 18 13 13 17 14 18 21 20 19 19 16 14 13 13
14 15 13 13 16 18 17 16 14 15 16 16 16 16 17 16 16 18 17 17 16 16 15 16 17 17 16 18 19 18 18 18 18 18 16 16 17 21 19 19 17 15 14 12 12
13 16 14 13 13 15 16 16 15 14 14 14 15 16 16 17 18 16 17 17 16 15 13 13 16 17 16 17 17 17 18 18 18 16 17 16 18 21 20 18 17 15 14 13 12
12 15 13 17 17 15 14 15 15 15 14 15 16 15 14 15 16 17 17 17 17 14 16 16 15 18 18 18 18 17 17 18 17 18 17 18 18 19 18 18 17 15 14 13 13
13 13 11 14 13 14 12 15 14 15 14 15 15 15 15 14 15 14 15 16 15 16 16 16 15 17 17 18 18 17 18 17 17 17 18 18 18 18 17 17 17 16 15 14 13
10 11 11 12 14 14 15 15 14 13 14 13 13 13 14 14 13 13 13 13 14 14 14 15 16 16 17 18 18 18 17 17 17 17 17 17 17 17 17 16 16 16 15 14 13

GFSSW_850_temp_096.txt.gz
Temp
16 16 16 16 16 16 16 15 15 16 16 15 15 16 16 16 17 16 16 16 16 16 16 17 17 17 18 18 19 20 19 19 21 22 24 27 27 21 23 23 25 26 26 24 21
16 16 16 16 16 16 16 16 16 16 16 16 16 16 16 17 17 16 16 16 16 16 15 16 18 19 18 19 19 19 18 19 23 24 25 26 26 24 18 21 26 25 25 23 21
16 16 16 16 16 16 16 16 16 17 17 17 16 17 17 17 16 16 16 16 16 16 15 15 17 18 18 19 20 20 18 21 22 24 25 25 25 25 19 23 26 26 24 22 21
16 16 16 16 16 16 16 16 16 16 17 17 17 17 17 17 18 16 16 16 15 15 16 17 18 18 19 19 20 19 21 22 23 23 23 24 24 24 18 15 24 24 24 22 21
16 16 16 15 15 16 16 16 16 17 17 17 17 17 17 16 17 17 16 16 15 15 16 17 18 19 18 20 21 20 21 22 22 23 23 23 23 23 24 24 24 24 23 22 22
15 15 15 15 15 15 16 16 16 17 17 17 17 17 16 18 17 17 16 16 15 15 16 17 17 17 18 18 19 20 20 20 21 21 22 22 23 23 23 24 22 23 24 23 22
15 15 15 15 15 15 16 16 17 17 17 17 17 17 16 17 17 17 16 16 16 16 15 16 16 16 17 18 19 20 19 19 20 20 20 22 21 21 23 24 22 22 23 23 23
15 15 15 15 15 15 16 16 17 17 17 17 17 17 16 18 17 17 16 16 16 16 15 15 15 15 16 17 18 18 18 17 20 20 21 21 19 21 23 23 24 22 22 23 23
15 15 15 15 15 16 16 17 17 17 17 17 17 15 18 18 17 16 16 16 16 16 15 15 15 16 17 17 17 18 17 18 20 22 21 20 19 21 22 23 23 24 23 23 23
15 15 15 15 15 16 16 17 18 17 18 17 17 15 18 18 17 17 17 16 15 16 16 15 16 17 18 17 16 18 17 18 18 20 21 20 19 21 23 23 23 24 23 23 24
15 15 15 15 15 15 16 16 17 17 16 17 18 17 18 17 17 17 17 16 16 17 18 18 17 16 17 18 18 18 17 17 18 19 19 19 20 21 22 23 22 23 24 23 23
14 14 15 15 15 15 15 14 12 12 12 17 17 16 17 17 17 19 18 18 18 18 19 18 16 18 18 18 17 17 17 16 17 19 19 18 19 21 22 21 22 23 23 22 22
14 14 15 15 15 14 13 13 13 12 13 18 17 18 18 17 17 18 18 17 18 18 18 16 17 18 18 17 17 16 16 16 17 18 18 18 17 19 22 23 22 22 22 23 22
14 14 15 15 14 14 13 13 13 12 15 19 19 18 18 18 18 18 18 17 18 18 17 17 18 17 16 16 17 14 17 17 16 15 14 18 15 18 20 21 22 22 22 22 22
14 15 14 15 14 13 13 14 13 12 17 20 20 19 19 19 19 19 18 17 18 18 17 17 16 16 15 16 16 15 14 14 15 15 15 15 14 17 18 20 21 20 22 21 21
14 15 15 15 12 14 14 13 11 15 18 20 20 20 20 21 21 20 20 17 18 18 18 18 17 17 16 16 17 17 14 13 13 14 12 15 14 13 17 20 21 20 22 22 21
14 15 15 14 13 14 14 12 15 17 21 19 19 20 20 20 20 21 20 20 18 15 15 17 16 17 17 16 17 15 12 9 10 12 12 13 12 13 15 16 19 18 18 21 19
14 15 14 14 14 14 12 15 17 20 18 19 19 19 19 20 20 20 20 19 18 17 15 14 14 16 17 16 15 15 12 10 10 12 11 11 11 12 12 14 19 18 21 19 18
14 13 12 14 14 14 13 17 17 17 17 17 18 19 19 20 19 19 19 18 17 17 14 14 14 17 18 17 16 15 12 10 9 9 11 10 12 13 14 18 17 16 16 17 17
15 13 13 14 14 14 15 17 18 17 17 17 16 19 17 18 18 18 19 18 17 17 17 16 13 17 18 18 17 15 12 11 9 11 11 14 16 16 17 17 17 15 15 15 15
14 15 14 14 14 13 16 18 17 17 16 16 17 16 17 17 17 17 18 17 16 16 16 17 16 16 18 17 16 15 15 13 11 11 12 14 15 18 17 17 16 14 15 14 14
12 15 14 14 14 17 17 15 15 16 16 16 16 17 17 16 16 17 17 17 16 16 15 16 14 14 17 19 19 17 16 17 12 12 10 11 14 17 17 16 15 15 14 14 13
12 15 14 14 15 17 18 17 16 15 16 16 16 17 16 16 15 17 17 17 16 16 14 14 14 14 16 16 18 17 18 18 17 13 14 11 13 17 16 15 15 14 13 12 12
12 15 14 13 15 15 16 16 16 15 15 15 15 16 16 16 17 16 17 17 17 17 14 13 14 14 13 15 16 16 17 17 17 13 15 15 16 16 16 15 14 13 13 12 12
12 14 13 16 16 16 16 16 15 16 15 15 15 16 15 14 14 15 16 16 16 15 15 14 13 15 16 16 18 17 17 17 17 17 15 16 15 15 16 16 15 14 13 12 12
12 13 13 13 15 15 14 15 15 15 15 15 15 15 14 13 14 14 14 14 14 16 14 14 13 14 15 17 18 17 17 17 17 16 17 16 14 16 17 17 16 14 13 13 12
11 12 12 13 14 14 15 15 15 14 14 14 13 13 13 13 12 12 12 13 13 13 13 13 13 13 13 16 18 17 16 16 17 16 15 15 15 15 14 14 14 15 14 13 12

GFSSW_850_temp_099.txt.gz
Temp
16 17 16 16 16 16 16 16 16 17 16 16 16 17 17 17 16 16 16 16 16 16 16 17 17 18 17 18 18 19 16 16 18 19 21 23 21 19 19 20 21 20 20 22 20
16 16 16 16 16 16 16 16 16 17 16 17 17 17 17 17 16 16 16 16 16 16 16 17 17 17 18 18 19 17 15 17 19 20 21 22 22 21 19 18 18 20 23 21 20
17 16 17 16 16 16 16 16 16 17 17 17 17 17 17 17 17 16 16 16 16 16 16 16 17 17 17 18 18 18 16 18 19 20 21 21 22 22 19 18 16 17 20 21 20
16 16 16 16 16 16 16 17 17 17 17 17 17 17 18 17 15 17 17 16 16 16 16 16 17 17 17 16 19 16 19 19 19 20 21 21 22 22 20 21 20 22 19 20 20
16 16 16 16 16 16 17 17 17 17 17 17 17 17 17 17 17 17 17 17 16 15 16 16 17 17 15 16 17 17 18 20 20 20 20 21 21 21 20 22 20 20 18 17 20
16 16 16 16 16 16 16 17 17 17 17 17 17 17 17 16 17 17 17 17 16 16 16 16 16 16 16 16 15 18 18 18 19 19 20 19 20 21 22 22 22 22 19 19 20
16 16 16 16 16 16 16 17 17 17 17 17 17 17 17 18 17 17 17 16 16 16 16 16 15 15 15 14 17 17 15 15 17 18 18 20 18 19 21 22 22 21 22 21 20
16 16 16 16 16 16 17 17 17 17 17 17 17 17 17 18 17 17 17 16 16 16 16 16 15 15 15 16 16 15 15 13 16 17 19 18 16 18 21 22 22 22 22 21 20
15 15 16 16 16 17 17 17 18 17 17 17 17 16 17 17 18 17 17 17 17 17 16 16 15 15 16 14 12 14 12 14 15 18 17 16 17 18 21 21 21 21 22 22 20
15 15 16 16 16 16 17 18 18 17 18 17 17 16 18 18 18 18 17 17 17 17 16 15 15 13 13 13 13 14 13 15 14 16 17 16 15 17 20 21 21 21 22 22 22
15 15 15 15 16 16 17 18 17 17 17 17 18 16 18 18 18 18 17 17 17 16 14 15 14 13 15 15 15 15 14 14 15 17 16 15 15 16 18 19 20 21 22 21 23
15 15 15 15 15 16 15 14 12 12 11 17 17 17 18 17 17 18 18 17 17 14 16 13 13 15 16 16 15 15 14 13 14 16 16 15 15 16 16 18 20 21 22 22 22
15 15 15 15 15 14 14 13 13 12 10 16 18 18 18 18 17 18 18 17 16 15 15 14 14 17 17 15 15 14 13 13 14 15 15 14 14 14 16 18 20 21 22 21 20
15 15 16 16 15 14 13 13 13 11 11 17 18 18 19 18 17 19 18 17 16 16 15 15 16 15 14 14 15 13 15 15 14 13 11 15 12 13 14 17 17 20 22 21 21
15 15 15 15 15 15 14 13 12 12 14 19 18 19 19 18 19 19 19 17 15 16 16 14 15 14 14 15 15 14 15 14 13 12 11 12 11 12 14 15 15 16 21 20 20
15 15 15 15 15 14 14 13 12 13 16 18 19 19 18 19 19 20 18 17 17 16 15 14 17 16 15 15 15 14 13 12 12 12 10 12 11 11 13 12 13 15 20 19 18
15 15 15 15 14 14 14 13 12 13 18 17 17 17 16 17 18 18 17 16 13 12 12 13 15 15 16 14 15 14 11 9 9 9 11 12 11 11 11 13 13 13 15 19 19
15 15 15 15 15 15 14 11 13 17 16 17 16 16 16 18 18 17 15 14 14 14 11 11 11 15 15 15 14 13 11 9 9 10 10 8 10 12 11 12 13 15 14 15 16
15 15 15 15 15 14 14 11 14 15 16 15 15 16 15 16 16 15 14 15 14 13 12 11 11 14 15 16 15 13 12 8 8 8 10 10 9 10 11 12 11 11 13 13 14
15 15 14 14 14 14 11 13 15 16 15 15 14 15 14 14 14 13 15 15 15 14 14 13 11 14 15 16 15 14 11 10 9 11 9 14 14 14 13 12 11 11 9 11 13
14 14 14 14 15 13 11 14 16 16 16 14 14 14 14 14 13 14 15 14 15 14 14 13 12 12 14 15 15 13 13 12 11 9 11 11 13 15 13 13 12 11 11 10 12
13 12 14 15 13 12 12 15 15 15 16 15 15 14 14 13 13 14 15 16 16 15 13 13 11 10 13 15 17 16 15 14 11 11 10 11 12 13 12 12 11 12 12 13 12
13 14 14 14 10 10 13 15 15 15 15 14 14 14 14 14 13 14 15 16 15 15 13 12 10 9 10 12 14 14 15 15 13 11 11 9 12 13 12 11 12 11 12 11 11
13 11 13 13 14 13 14 14 14 15 14 15 14 14 14 13 13 12 13 14 15 15 14 13 10 11 10 11 12 12 14 15 13 11 12 12 13 13 13 11 11 11 11 11 11
12 12 13 11 12 13 14 14 13 13 14 15 14 13 12 12 11 12 12 11 13 15 13 11 10 11 11 12 13 14 15 14 15 15 14 13 14 13 13 12 12 12 12 11 11
12 12 13 13 14 13 12 13 14 14 14 13 12 12 12 11 12 10 10 11 10 11 10 10 10 10 11 14 15 15 14 14 15 14 13 13 12 12 13 13 12 12 12 12 12
11 11 13 12 12 11 11 13 12 13 13 13 12 11 10 11 11 11 12 11 11 9 9 9 9 9 9 12 13 13 14 14 14 12 13 12 13 13 10 11 11 12 12 12 11

GFSSW_850_temp_102.txt.gz
Temp
16 16 16 16 16 16 16 17 17 17 17 17 17 17 17 17 16 17 16 16 16 16 16 16 17 16 17 17 18 18 15 14 16 18 19 21 20 19 19 19 19 20 20 20 19
16 16 17 16 16 16 16 17 17 17 17 17 17 17 17 16 17 16 16 16 15 16 16 16 17 16 17 17 18 16 13 16 18 19 19 20 21 20 19 18 18 20 20 19 19
16 16 16 16 16 16 16 17 17 17 17 17 17 17 17 17 17 16 16 16 16 16 16 16 17 16 17 17 17 17 15 17 18 19 19 20 20 21 18 16 18 20 21 19 19
16 16 16 16 16 16 17 17 17 17 17 17 17 17 18 18 16 17 17 16 16 16 16 16 16 16 16 15 17 15 17 18 18 19 19 18 20 20 20 21 22 20 21 20 20
16 16 16 16 16 16 16 17 17 17 17 18 18 18 17 17 17 17 17 17 17 16 16 16 15 15 13 14 15 15 16 17 18 18 18 19 19 19 20 21 21 20 19 19 17
16 16 16 16 17 17 17 17 17 17 17 18 18 18 18 17 17 17 17 17 16 16 16 16 15 15 15 14 14 16 16 16 17 17 18 18 18 19 20 21 20 20 18 18 18
16 16 16 17 17 17 17 17 17 17 17 17 17 18 18 17 17 17 17 17 17 16 16 16 15 15 15 13 16 16 14 14 16 17 17 18 17 17 20 21 21 19 19 18 18
16 16 16 16 17 17 17 18 18 17 17 17 17 17 18 17 17 17 17 17 17 17 16 16 15 15 14 15 15 14 14 12 15 16 18 17 14 16 20 20 19 19 20 19 19
15 16 16 16 17 17 17 18 18 18 17 17 17 17 18 17 17 18 18 17 17 17 16 16 15 15 15 13 11 12 12 13 14 16 16 16 15 16 19 19 19 20 19 18 20
16 16 16 16 17 17 18 18 17 17 18 17 17 17 18 18 18 18 18 17 17 17 17 15 15 12 11 11 11 12 12 13 13 15 15 14 13 14 18 18 18 19 20 19 19
16 16 16 16 16 16 17 18 17 17 17 17 17 17 18 18 18 18 18 17 17 16 14 14 12 12 12 13 14 13 13 12 13 14 14 14 14 14 16 16 16 18 19 20 20
16 17 17 16 16 16 16 15 13 13 13 16 18 17 18 17 17 19 18 17 16 14 14 12 12 14 14 15 14 13 12 12 13 14 14 13 14 14 14 15 17 18 19 19 21
16 17 17 17 16 16 14 13 13 12 10 17 17 17 18 18 17 19 18 17 16 15 14 13 14 15 15 14 14 13 12 12 13 13 13 13 13 13 14 15 17 18 18 20 21
16 17 17 16 15 15 14 13 12 12 11 17 17 18 18 18 17 19 18 17 16 15 14 13 15 15 14 14 14 12 14 14 13 12 11 13 11 12 13 13 14 15 15 17 20
16 16 17 16 15 14 13 13 13 12 13 18 18 19 18 18 18 19 18 17 15 15 14 13 14 14 14 14 14 13 14 13 13 12 10 11 9 11 12 13 12 12 14 16 17
16 16 16 16 15 14 14 13 13 13 15 17 18 17 16 18 19 18 17 17 16 14 14 13 15 15 15 14 14 15 13 11 11 11 9 10 10 10 9 10 10 12 13 16 16
16 16 16 16 15 15 14 13 12 13 16 15 16 15 15 16 17 16 15 13 13 12 11 11 13 14 15 13 14 13 10 9 8 9 10 8 9 9 10 10 10 10 12 14 14
16 16 15 15 15 15 14 12 13 15 14 15 16 14 16 15 15 14 14 13 13 12 10 10 10 14 15 14 13 12 11 9 8 10 9 9 9 10 10 11 10 10 11 13 14
16 16 16 15 15 15 14 11 13 14 15 14 13 14 13 14 14 13 13 13 13 13 13 10 10 13 14 14 14 13 10 8 8 8 8 10 11 11 12 11 10 10 10 10 12
15 15 16 15 15 15 11 13 14 15 15 14 13 14 13 13 13 12 13 14 14 14 13 13 10 13 13 15 13 13 9 10 9 10 8 11 12 12 12 10 9 10 10 10 11
15 15 15 15 14 14 11 12 15 15 15 14 14 13 14 13 13 13 14 14 14 13 13 12 10 11 12 13 13 12 11 11 10 10 10 9 11 12 11 11 10 9 9 9 10
14 12 14 14 13 9 11 14 15 15 15 14 14 13 13 13 13 13 14 14 14 14 13 12 9 8 11 13 13 14 14 12 10 10 11 10 10 10 10 10 10 10 9 9 10
13 13 13 14 12 11 12 15 15 14 14 14 14 13 14 13 12 13 12 14 14 12 13 13 9 8 10 11 11 12 12 14 11 10 10 9 11 11 10 9 10 10 11 11 11
13 10 12 12 12 11 13 13 14 15 14 14 14 14 13 13 12 12 12 13 13 13 13 12 9 10 9 10 11 10 12 12 12 10 11 10 13 12 11 10 10 10 11 11 10
12 11 13 9 10 12 12 13 13 13 13 14 13 12 12 11 11 11 11 10 12 12 12 9 9 9 9 10 11 11 11 13 13 13 12 12 13 12 11 10 10 11 11 11 10
12 12 12 12 13 11 11 12 12 13 13 13 12 12 11 10 11 10 10 10 10 10 10 7 9 8 9 12 12 13 13 14 13 13 13 12 11 10 10 11 11 11 11 11 10
11 12 13 11 10 10 10 11 12 13 13 13 12 11 10 10 12 11 11 10 11 10 8 8 7 8 8 10 11 13 13 14 13 12 12 12 12 11 9 9 10 11 11 11 10

GFSSW_850_temp_105.txt.gz
Temp
17 17 17 17 16 16 17 16 16 17 17 17 17 17 17 17 17 17 16 16 16 15 15 16 16 16 16 17 17 17 14 13 15 17 18 20 19 19 20 19 19 19 19 19 19
17 16 16 17 16 16 16 16 17 17 17 17 17 17 17 17 17 17 16 16 16 16 16 16 16 16 16 16 17 15 12 15 16 18 18 19 19 20 19 18 18 18 19 19 19
16 16 17 17 16 16 17 16 17 17 17 17 17 17 17 17 17 17 17 17 16 16 16 16 16 16 16 16 16 15 13 16 17 18 19 18 18 19 18 16 19 20 19 18 19
16 17 17 17 16 16 16 17 16 17 17 18 17 17 17 17 15 17 17 17 16 16 16 16 16 16 14 14 15 14 16 16 16 18 17 17 19 19 19 20 21 21 19 19 18
16 17 17 16 16 17 17 17 17 17 17 18 17 18 17 17 17 17 17 17 16 16 16 16 15 15 13 13 14 13 15 16 17 17 17 18 17 18 19 20 21 21 19 19 17
16 17 16 16 17 17 17 17 17 17 17 17 17 18 17 16 17 17 17 17 16 16 16 16 15 15 14 14 13 15 15 14 16 17 16 16 16 18 19 20 19 20 19 19 18
16 16 16 17 17 17 17 17 17 17 18 18 18 18 17 17 17 17 17 17 17 16 16 16 15 15 15 13 15 15 13 13 15 16 15 16 15 16 19 19 20 19 19 18 18
16 16 16 17 17 17 17 18 18 18 18 18 18 18 18 17 17 17 18 17 17 17 17 16 15 15 14 14 14 13 13 12 14 15 17 17 13 16 18 18 18 18 17 17 16
16 16 16 17 17 17 18 18 18 18 18 17 17 18 18 18 18 18 18 18 17 17 16 16 14 14 14 12 10 11 11 12 13 15 14 16 13 15 18 17 17 18 18 18 16
16 17 17 17 17 17 18 18 17 17 17 17 17 17 18 18 18 18 18 17 17 17 17 16 14 11 10 10 11 11 11 11 11 13 14 13 12 13 16 16 16 17 18 18 16
16 17 17 17 17 17 18 17 17 17 17 17 17 17 18 18 18 18 18 17 17 16 14 14 11 11 12 12 12 12 11 11 12 13 13 12 12 12 14 15 15 17 18 18 18
17 17 17 17 16 16 17 17 14 14 15 17 18 18 18 17 17 19 18 17 16 14 14 11 11 14 13 13 13 12 12 12 12 13 13 12 12 12 13 14 16 16 17 18 18
17 17 17 17 16 16 16 15 14 13 12 17 17 17 18 17 17 18 17 17 15 14 13 12 13 14 14 13 13 13 12 11 12 13 12 11 11 12 13 14 15 16 15 16 17
16 17 17 17 16 15 14 13 13 12 12 16 17 18 18 18 17 18 17 17 15 14 13 12 14 14 13 13 13 11 14 14 13 12 11 11 10 11 12 12 12 12 13 14 16
16 17 17 17 16 15 14 13 13 13 13 18 18 18 18 17 18 17 17 17 15 14 14 13 13 13 13 14 14 13 13 12 11 10 9 10 9 8 9 10 9 10 11 13 15
16 16 16 16 16 15 14 13 13 13 15 16 17 15 15 17 17 17 17 17 16 13 13 12 14 14 14 14 13 13 12 10 9 9 8 8 9 8 9 10 10 9 9 12 16
16 16 16 16 15 15 14 14 12 12 15 15 15 14 14 15 15 15 13 11 12 11 10 10 12 12 14 12 13 11 9 9 7 7 10 8 9 8 8 9 10 8 9 11 13
16 16 16 16 15 15 15 12 14 15 14 15 14 13 15 13 14 13 13 12 13 12 9 9 10 13 13 13 13 11 10 10 8 8 9 9 9 10 11 10 10 9 9 10 11
16 16 16 16 15 15 15 11 13 13 15 14 13 13 13 13 13 12 12 12 13 12 12 9 10 11 13 13 13 12 9 9 8 8 8 9 12 10 12 11 10 9 9 9 10
15 16 15 15 15 15 12 13 13 15 15 14 13 13 13 12 12 12 12 13 13 13 12 12 8 11 12 14 12 12 8 10 8 10 10 9 10 11 11 11 10 10 8 9 10
15 15 15 14 15 15 12 12 14 15 15 14 13 13 13 12 12 12 13 13 13 13 12 11 10 10 11 13 12 10 10 10 9 10 10 8 10 11 10 10 9 8 8 9 9
14 12 14 14 13 9 10 12 15 14 15 14 13 13 13 12 12 13 13 13 13 13 12 12 8 8 11 11 11 12 13 10 9 9 10 10 9 9 8 9 9 8 8 8 10
14 13 13 13 11 10 12 14 14 13 14 13 13 13 13 13 12 12 12 13 13 12 12 11 8 7 10 11 11 11 11 11 10 8 9 8 10 10 9 8 9 9 9 9 9
13 10 12 12 12 11 12 13 13 14 14 14 13 13 12 12 12 11 12 12 12 12 12 11 8 9 8 10 10 9 10 10 10 9 10 9 11 11 10 9 9 9 9 9 9
12 10 12 9 10 10 11 12 13 13 13 13 12 12 12 11 11 10 11 10 11 11 11 8 9 8 8 9 9 9 10 10 12 12 12 12 12 10 9 10 10 9 10 9 9
11 11 11 11 12 10 9 11 11 12 11 12 12 10 10 10 10 10 10 9 9 10 9 7 8 7 8 10 10 9 11 12 13 12 12 11 11 10 9 10 10 10 10 10 9
11 12 12 10 8 9 9 11 11 13 13 13 11 9 9 9 12 12 12 11 11 9 8 8 6 7 7 9 9 12 13 13 12 11 11 11 12 9 9 10 10 10 10 10 10

GFSSW_850_temp_111.txt.gz
Temp
17 17 17 16 17 17 17 17 17 17 17 17 17 17 17 17 17 17 17 16 16 16 16 16 16 16 16 16 16 15 15 14 16 17 18 18 18 18 18 18 19 19 18 18 18
17 17 17 17 17 17 17 17 17 17 17 17 17 17 17 17 17 16 16 16 16 16 16 16 16 16 16 16 15 15 14 14 16 17 17 17 17 18 18 18 19 18 19 19 19
17 16 17 17 17 17 17 17 17 17 17 17 17 17 17 17 17 16 16 16 16 16 16 16 16 16 15 15 14 13 14 14 16 16 16 16 17 17 18 18 18 19 19 18 17
16 16 17 17 17 17 17 17 17 17 17 18 18 17 17 17 16 17 16 16 16 16 16 16 16 15 13 14 14 14 14 14 16 16 15 16 16 17 17 18 19 20 19 18 17
16 16 16 16 17 16 17 17 17 17 17 18 18 17 17 17 17 17 17 17 17 16 16 16 15 14 14 13 13 14 14 15 15 15 14 15 14 16 16 17 19 19 18 18 17
16 16 16 16 16 17 17 17 17 18 18 18 18 17 17 16 17 17 17 17 17 16 16 15 15 14 14 13 13 13 13 13 14 15 15 14 15 15 17 17 17 18 18 18 18
16 16 17 16 17 17 17 18 18 18 18 18 18 18 18 17 18 17 17 17 17 16 16 15 15 15 14 13 13 13 13 14 14 15 15 14 15 15 16 16 17 17 17 18 17
16 17 16 16 17 17 17 18 18 18 18 18 18 18 18 18 18 18 18 17 17 17 16 15 15 15 14 14 13 13 13 13 15 14 15 15 15 15 17 16 16 17 17 17 16
16 16 16 17 17 17 18 17 18 18 18 18 18 18 18 18 18 18 18 18 17 17 16 15 15 14 13 13 13 12 13 12 13 14 14 15 14 15 16 14 14 16 16 16 17
16 16 17 17 17 17 17 17 17 17 17 17 18 18 18 18 18 18 18 17 17 17 16 15 14 13 12 13 13 13 12 12 12 14 14 13 13 14 14 13 14 14 16 16 17
16 16 17 17 17 17 17 17 17 17 17 17 17 18 18 18 18 18 18 17 17 16 13 13 14 14 13 12 12 12 11 12 13 14 12 13 13 13 14 13 13 13 14 15 16
16 17 17 17 17 17 17 17 15 15 16 17 18 18 17 17 17 17 17 17 15 13 13 12 14 14 13 13 13 12 12 12 13 13 12 12 13 13 13 12 12 12 11 12 13
16 16 17 17 17 16 16 15 15 15 16 17 17 17 17 17 17 17 16 16 14 13 12 12 14 13 13 13 13 13 12 12 12 12 11 12 12 12 12 11 11 11 10 11 12
16 16 17 17 16 16 15 14 14 15 13 16 17 17 17 17 16 17 17 15 14 14 12 12 13 13 13 13 13 12 13 12 11 11 12 11 10 12 11 12 11 11 10 10 13
16 16 16 16 16 15 14 14 14 14 15 16 16 17 17 16 16 16 16 15 14 14 13 14 13 12 13 14 12 13 12 11 11 10 11 10 10 12 11 10 8 10 10 10 10
16 16 16 16 15 15 15 14 14 14 16 15 15 14 15 15 15 15 16 15 14 12 11 11 12 12 13 13 12 12 11 10 9 9 11 9 9 11 9 8 9 10 9 9 10
15 16 16 15 15 15 15 14 14 14 14 15 14 13 12 13 13 12 12 11 11 11 10 10 12 12 12 12 12 11 10 11 12 10 11 10 10 10 8 9 9 10 8 8 10
15 16 16 15 15 15 14 12 17 14 13 13 13 13 13 12 12 11 12 11 11 10 9 9 12 12 12 12 12 10 10 9 10 10 10 10 10 10 8 9 9 9 8 7 9
15 15 15 16 15 15 14 13 14 13 14 14 13 12 12 12 12 12 11 11 12 11 11 10 10 10 11 12 11 12 10 9 8 7 9 10 11 9 9 9 9 9 8 7 7
14 14 15 15 14 14 12 13 13 13 13 13 14 13 13 12 12 11 11 12 12 12 11 10 9 10 11 11 10 11 10 11 9 9 10 12 11 10 7 7 9 9 7 6 7
13 14 14 13 14 14 12 11 12 14 14 13 12 12 12 12 11 11 12 12 12 12 11 10 9 11 10 12 12 11 11 10 10 10 10 11 12 11 9 8 8 8 8 7 7
12 10 13 12 12 7 9 11 14 13 13 13 12 12 12 11 11 11 11 12 12 11 11 10 8 9 11 10 9 11 11 9 10 11 9 10 12 10 9 8 8 8 8 8 8
12 12 12 12 9 8 9 12 13 12 12 12 12 12 12 11 12 11 11 12 11 11 11 10 9 10 12 12 11 11 10 10 9 8 10 11 13 9 8 8 8 8 8 8 8
11 8 10 10 10 9 10 11 12 13 12 12 12 12 11 11 10 11 11 11 11 11 10 10 7 10 11 11 9 10 10 9 9 10 10 10 11 11 9 9 8 8 8 8 8
10 8 10 7 7 8 10 11 11 11 12 12 11 11 11 10 11 10 9 10 10 10 9 8 9 7 8 8 8 8 9 9 9 10 12 11 10 11 10 9 8 8 8 8 8
9 9 9 9 9 9 9 9 11 11 10 11 11 10 9 10 11 11 10 9 10 9 8 6 9 7 7 8 8 8 9 9 8 10 9 9 10 10 9 9 8 9 9 8 8
9 10 12 8 6 8 8 10 10 11 11 13 11 9 9 10 12 12 11 11 10 9 8 7 7 7 9 7 8 11 11 10 11 10 11 11 11 9 9 9 9 9 9 9 9

GFSSW_850_temp_114.txt.gz
Temp
16 16 16 16 16 16 16 17 17 17 17 17 17 17 17 17 17 16 16 16 16 16 16 16 16 16 16 16 16 16 19 20 20 20 21 21 21 21 19 21 21 21 21 19 17
16 16 16 17 16 17 17 17 17 17 17 17 17 17 17 17 17 17 16 16 16 16 16 16 16 16 17 17 16 19 19 20 20 20 20 20 20 21 20 21 21 21 20 17 16
16 16 16 16 16 16 17 17 17 17 17 18 17 17 17 17 17 17 17 17 16 17 17 16 16 16 17 17 17 17 18 19 19 19 19 19 19 19 20 20 21 21 21 17 16
16 16 16 17 16 16 17 17 17 17 17 18 17 17 17 17 19 17 17 17 17 17 16 16 16 17 18 18 16 17 18 17 18 18 17 18 19 19 19 19 19 20 20 20 17
16 16 17 16 16 16 17 17 17 17 18 18 18 18 18 18 18 17 17 17 17 17 17 16 17 16 18 17 17 17 18 17 17 17 17 17 17 18 18 19 19 19 19 19 18
16 16 16 16 16 17 17 17 18 18 18 18 18 18 18 20 18 17 17 17 17 17 16 15 16 15 17 17 17 17 16 17 17 17 17 17 18 17 19 18 18 18 18 19 19
16 17 16 17 17 17 17 18 18 18 18 18 18 18 18 18 18 18 17 17 17 16 15 16 15 16 16 18 15 16 17 18 18 18 17 16 18 18 19 18 18 19 19 18 18
17 17 17 17 17 17 17 18 18 18 18 18 18 18 19 18 18 18 18 17 17 16 16 16 15 15 16 16 17 17 17 17 19 17 17 17 17 20 18 18 18 18 19 18 18
17 17 17 17 17 17 17 17 17 18 18 18 18 18 19 18 18 18 18 17 17 16 16 16 15 16 16 18 19 17 17 17 17 18 17 17 17 19 18 17 17 18 18 19 18
17 16 17 17 17 17 17 17 17 17 17 18 18 18 19 18 18 18 18 17 16 16 16 16 16 18 19 19 17 17 17 17 17 18 17 17 17 18 16 16 16 17 18 18 18
16 16 17 17 17 17 17 17 17 17 17 17 18 18 18 18 18 18 18 16 16 17 18 16 19 18 18 17 17 16 16 17 18 17 15 16 16 16 15 15 15 15 17 17 17
16 16 17 17 17 17 17 17 16 16 17 17 18 18 17 17 18 17 17 18 18 18 18 18 18 18 17 17 17 17 17 17 17 16 15 15 15 15 15 15 14 14 14 14 15
16 16 17 17 17 16 16 16 16 16 18 17 17 17 17 17 17 17 16 16 17 18 17 17 18 16 17 17 17 18 16 16 15 16 15 15 16 15 16 15 14 13 14 14 14
16 16 16 17 16 16 16 15 15 16 20 19 18 17 17 17 18 17 16 16 18 17 17 17 16 16 17 18 16 17 16 15 15 16 15 15 16 17 15 14 13 13 12 13 13
16 16 16 16 16 16 15 15 15 16 20 18 18 17 17 17 16 17 16 16 17 17 17 18 17 16 17 17 16 17 15 14 15 15 15 15 13 15 13 10 11 11 10 11 11
15 16 16 16 16 15 15 15 15 19 19 18 17 17 18 17 16 16 16 16 14 16 16 16 14 15 16 16 15 16 15 14 14 15 17 14 12 15 9 8 9 9 10 9 9
15 15 15 15 15 15 15 15 19 20 17 18 17 16 16 17 17 16 16 16 16 17 17 17 17 15 14 16 17 17 17 15 16 15 16 14 14 12 10 9 9 9 8 8 8
14 15 15 15 15 15 15 18 19 18 18 16 16 15 17 16 16 16 16 16 15 15 16 15 17 16 15 15 15 14 14 13 12 14 13 14 12 12 9 11 10 9 8 7 7
13 14 15 15 15 14 15 20 21 19 18 16 15 17 16 15 16 16 16 16 15 15 15 15 16 15 14 14 14 16 15 13 10 11 13 14 17 13 11 13 12 10 8 6 6
13 14 14 15 14 14 17 19 18 16 15 16 18 16 17 16 16 16 15 15 15 14 14 15 14 15 15 14 14 15 14 15 14 12 14 17 16 13 12 13 13 12 9 6 5
12 13 13 13 13 14 18 19 16 14 15 16 17 16 16 16 15 16 16 15 14 14 13 14 14 16 14 16 15 15 16 15 14 14 14 16 16 14 13 12 12 12 10 7 6
12 14 12 12 14 13 17 16 15 15 13 14 15 16 16 15 15 15 16 15 13 14 15 14 14 15 16 14 13 14 14 15 15 15 14 14 16 15 13 12 11 11 10 7 7
11 12 11 11 15 15 14 14 14 14 15 15 15 15 14 15 15 15 15 12 12 14 14 14 14 16 16 15 14 15 14 13 13 13 15 15 17 14 13 13 11 10 10 8 7
12 13 9 9 10 16 16 15 15 13 14 14 14 14 13 13 14 14 14 13 11 12 10 12 13 14 16 16 14 14 14 14 14 15 16 16 16 15 14 13 12 9 10 8 8
11 13 13 12 11 13 15 17 15 13 13 13 12 14 14 13 13 14 14 13 11 11 11 13 14 13 14 14 13 13 13 14 13 15 15 16 15 15 14 14 12 10 9 9 9
10 11 8 12 12 13 13 15 15 14 14 14 14 14 13 14 15 14 14 14 14 12 13 11 14 12 14 13 12 12 14 14 13 14 14 15 15 15 13 12 12 11 10 10 9
9 12 13 11 12 13 14 16 15 15 13 15 15 13 13 15 14 13 13 13 13 13 13 12 13 13 15 13 14 15 16 14 15 15 16 16 16 14 13 12 12 11 11 10 9

GFSSW_850_temp_117.txt.gz
Temp
16 16 16 16 16 16 17 17 17 17 17 17 17 17 17 17 17 18 18 16 16 17 16 16 17 17 17 18 18 19 20 21 22 23 23 24 23 23 22 22 23 23 23 21 17
16 16 16 16 16 16 17 17 17 17 17 17 17 17 17 17 17 19 17 17 17 17 17 17 18 18 19 19 19 20 20 22 22 22 22 22 23 23 23 22 23 23 23 20 18
16 16 16 16 16 16 17 17 17 17 17 18 17 17 17 18 18 18 17 17 17 17 17 17 17 18 19 19 20 20 20 22 21 20 20 21 21 21 21 22 22 23 23 21 20
15 15 16 16 16 17 17 17 18 18 17 18 18 17 17 18 21 18 17 17 17 17 18 18 19 19 19 20 19 19 20 20 20 19 19 20 20 20 21 21 21 21 21 22 21
15 16 16 16 17 17 17 18 18 18 18 18 18 18 18 19 19 18 18 17 17 17 17 18 19 19 20 20 19 19 20 19 19 19 19 19 19 20 20 20 20 20 20 21 21
15 16 16 17 17 17 17 17 18 18 18 18 18 18 18 21 18 18 18 17 17 17 18 18 18 17 19 19 19 19 19 19 20 19 19 19 19 20 20 21 20 20 20 21 20
16 16 17 17 17 17 17 18 18 18 18 18 18 18 19 20 18 17 18 17 17 16 17 17 17 17 18 20 19 18 19 20 20 20 20 18 19 20 20 20 20 20 21 20 20
16 16 16 17 17 17 18 18 18 18 18 18 18 18 21 19 18 18 17 18 17 16 16 16 16 17 18 18 19 20 20 20 21 20 19 18 18 21 20 20 20 20 20 21 20
16 16 16 17 16 17 17 17 18 18 18 18 18 18 21 19 19 18 18 18 17 16 16 16 16 18 19 21 22 21 20 20 20 21 19 19 18 20 19 19 19 19 19 20 21
16 16 16 17 17 17 17 17 17 18 18 18 18 19 20 20 18 18 18 17 17 18 18 18 19 20 22 20 19 18 19 19 20 20 19 18 18 19 18 17 17 18 18 19 20
15 16 16 17 17 17 17 17 18 17 17 19 20 20 19 18 19 19 18 18 18 19 20 20 20 20 20 19 19 19 19 20 20 19 17 18 18 17 17 17 17 16 17 18 20
15 16 16 17 17 17 17 17 18 17 19 18 18 18 18 18 19 19 18 20 20 20 21 20 21 20 19 19 20 20 20 19 20 19 18 18 18 18 18 17 16 16 16 17 17
15 16 16 16 17 17 16 17 17 18 20 19 18 19 18 17 20 20 18 19 20 20 20 19 20 19 19 19 19 19 18 18 17 19 19 18 17 17 17 15 14 13 13 15 16
15 16 16 16 16 16 15 16 17 17 21 21 20 19 18 18 19 17 17 17 20 19 19 20 20 18 19 20 19 18 18 17 17 18 18 19 17 18 16 14 13 12 11 12 13
14 15 16 16 15 15 16 16 16 16 21 20 20 18 18 19 19 19 17 18 19 19 19 19 19 18 18 19 18 18 18 16 17 18 18 18 16 17 15 12 11 11 10 10 10
14 15 15 15 15 16 16 15 16 20 21 19 20 20 20 19 19 18 18 18 17 18 18 19 17 18 18 18 19 18 19 18 17 18 17 17 15 17 12 10 10 10 9 8 8
14 14 15 15 15 15 16 15 20 21 20 20 20 19 20 20 19 19 19 19 19 19 20 20 19 18 17 18 19 19 19 17 17 17 17 17 16 14 13 12 10 9 8 7 7
14 14 14 15 15 15 14 19 20 22 22 19 19 18 19 19 19 19 19 19 18 18 19 18 18 18 18 17 16 17 17 14 12 15 15 17 14 14 14 13 12 9 7 7 7
14 14 14 14 15 14 16 20 23 23 22 19 18 19 19 18 18 19 19 19 18 17 17 18 18 18 17 17 17 17 17 15 13 14 14 17 17 16 17 16 14 11 7 6 6
13 12 14 15 15 13 18 20 22 21 19 20 20 20 20 19 18 19 19 18 17 16 17 17 17 18 18 16 17 17 16 16 17 13 16 19 18 16 16 15 15 12 8 6 6
11 13 14 14 14 15 18 21 21 18 18 20 21 20 20 19 19 19 19 17 17 16 16 17 17 18 17 18 18 18 18 18 16 16 16 17 17 17 16 15 14 12 8 6 6
12 15 13 13 14 18 19 21 19 18 16 18 19 20 20 19 18 18 18 18 16 16 16 17 17 17 19 17 16 17 17 17 17 17 18 17 17 18 16 15 14 11 10 8 7
12 13 11 10 16 19 19 18 17 17 18 18 18 18 18 18 17 17 17 14 14 15 16 16 17 18 17 16 16 17 17 16 17 16 18 17 18 17 16 15 13 13 9 8 7
12 14 10 9 15 18 19 18 17 17 18 17 18 17 17 17 16 16 15 14 13 14 12 13 16 17 18 18 17 16 17 16 16 16 18 19 18 18 16 15 13 12 10 8 8
10 15 16 14 15 16 19 19 18 15 16 17 16 17 17 16 15 14 16 14 13 12 13 14 16 17 17 17 17 16 16 16 16 17 16 18 17 18 17 16 14 12 12 11 9
11 13 15 16 16 16 15 18 18 18 16 16 17 17 17 17 17 15 16 17 17 14 14 15 15 15 16 18 16 15 16 16 16 17 17 17 17 18 16 15 14 13 12 11 10
8 12 13 15 17 17 17 18 19 19 16 18 17 17 16 17 17 17 17 16 16 16 15 15 15 16 17 17 17 17 18 18 17 17 17 17 18 17 15 15 15 14 13 12 11

GFSSW_850_temp_120.txt.gz
Temp
16 16 16 16 16 17 17 17 17 17 17 18 18 18 18 18 18 18 18 17 17 17 17 17 18 18 18 18 18 19 18 18 20 21 21 23 23 24 24 23 22 22 23 19 17
16 16 16 16 16 16 17 17 17 17 17 18 17 18 18 18 18 18 18 17 17 17 17 18 18 18 19 19 19 19 17 20 22 21 20 21 22 22 22 22 22 23 23 21 20
16 16 16 16 16 16 17 17 17 17 18 18 18 17 17 18 18 18 18 18 18 18 17 18 19 19 19 19 20 20 18 20 20 21 20 20 20 21 21 19 22 22 22 21 19
16 16 16 16 16 16 17 17 17 18 17 18 18 18 18 18 20 19 18 18 18 17 18 19 19 20 20 20 20 19 20 21 20 20 19 19 19 20 20 20 21 21 21 21 21
15 15 16 16 16 17 17 17 17 18 18 18 18 18 18 17 19 19 18 18 18 17 19 18 19 19 19 20 20 20 20 20 20 20 19 19 19 19 20 20 20 20 21 21 21
15 16 16 16 16 17 17 17 18 18 18 18 18 18 18 20 19 18 18 18 17 17 18 18 18 18 18 19 20 20 19 19 20 20 20 20 19 20 20 20 20 20 20 20 21
15 15 16 16 17 17 17 17 18 18 18 18 18 18 18 19 19 18 18 18 18 17 17 18 17 18 19 19 20 19 18 20 21 21 20 19 18 19 20 20 21 20 20 21 20
15 15 16 17 17 17 17 17 18 18 18 18 18 18 20 20 19 19 18 19 18 17 17 17 17 17 18 19 19 19 20 19 21 20 19 19 16 20 20 20 20 19 20 20 20
15 15 16 17 17 17 17 17 17 18 18 18 18 19 20 20 19 19 18 18 18 18 17 17 17 18 19 18 19 20 18 19 20 21 20 19 17 19 18 18 18 18 18 18 19
15 15 16 16 16 17 17 17 17 18 18 18 19 18 20 20 19 19 19 18 18 19 18 17 18 19 19 18 16 17 18 19 19 19 18 18 17 17 18 17 17 16 16 17 19
15 15 16 16 16 17 17 17 18 17 17 19 20 20 20 19 19 19 19 19 19 19 19 21 19 19 19 19 19 19 19 19 19 19 17 18 18 18 16 15 14 14 13 14 16
15 15 16 16 16 16 17 16 17 16 19 19 19 19 19 19 19 20 19 20 20 20 21 20 18 19 20 20 19 19 19 18 18 20 18 18 18 16 16 14 13 13 13 13 13
15 16 16 16 16 16 16 16 17 17 18 19 19 20 20 19 20 20 19 19 20 20 21 19 20 20 20 19 19 18 17 16 16 18 19 18 16 17 16 14 13 12 11 11 11
15 15 16 16 16 16 15 16 17 17 19 20 19 20 19 18 19 19 18 18 20 20 19 19 20 19 19 19 18 17 17 18 17 17 16 18 14 15 15 13 12 11 11 10 10
14 15 15 15 16 16 16 16 17 17 19 21 20 19 19 19 19 19 18 18 19 19 19 19 18 17 18 18 18 17 17 18 17 16 17 17 14 15 14 11 11 11 10 8 8
14 14 15 14 15 15 16 16 16 18 19 20 20 19 20 20 20 19 19 18 19 18 19 19 18 18 18 18 18 19 18 19 17 16 15 16 15 13 12 11 11 11 8 8 7
13 14 14 15 14 15 15 15 18 18 22 19 20 20 20 20 20 20 20 19 18 17 18 20 19 19 18 17 19 17 16 13 14 14 14 17 14 12 13 12 10 9 7 7 7
12 13 14 15 15 15 14 16 17 23 22 22 21 20 20 20 20 20 19 19 18 18 17 18 17 18 18 17 16 16 16 11 11 12 12 16 13 14 15 13 11 8 7 7 7
12 12 13 15 15 15 14 16 20 22 22 20 20 19 19 19 18 19 20 19 18 17 16 17 18 17 17 17 17 17 15 15 13 13 12 14 14 15 15 14 12 9 7 7 7
11 11 12 13 15 14 15 16 20 23 22 21 20 20 20 19 18 19 19 18 17 17 17 17 15 19 18 17 17 17 17 14 14 10 13 16 15 14 13 13 12 9 7 7 7
9 11 13 13 14 13 15 17 20 21 20 21 21 21 21 20 19 20 19 17 17 16 16 17 16 17 18 17 17 16 17 17 16 15 14 14 13 16 13 13 11 10 7 6 7
8 11 12 13 12 15 15 18 20 20 19 19 19 21 20 20 19 19 19 18 17 17 16 15 15 15 17 17 17 17 17 17 14 14 14 15 14 16 14 13 11 10 7 7 7
9 11 10 11 13 15 17 18 20 19 18 18 18 20 20 19 18 18 17 15 15 16 15 15 15 15 15 16 16 16 17 17 16 15 14 13 14 16 15 13 12 10 8 8 8
10 11 10 9 12 16 17 18 18 19 19 19 19 19 17 18 18 17 16 14 14 15 13 14 14 15 15 16 17 16 17 17 15 13 15 15 16 15 14 13 13 10 9 9 8
7 12 14 10 11 13 16 19 18 16 17 18 17 17 17 16 16 15 16 13 13 12 13 14 14 16 16 17 16 16 16 16 15 15 14 16 16 17 15 13 13 12 10 9 10
6 10 13 14 13 13 14 16 18 17 16 16 16 16 17 16 16 15 15 14 14 12 13 13 13 15 14 17 17 16 16 16 15 15 15 15 15 15 16 14 13 13 12 11 10
5 7 11 14 14 14 14 16 17 19 17 18 17 16 16 17 17 17 17 17 15 13 13 13 13 14 15 17 16 15 16 16 16 16 16 14 15 14 14 14 14 13 12 11 10

GFSSW_850_temp_123.txt.gz
Temp
17 17 17 17 17 17 17 17 17 17 17 17 18 18 18 18 18 18 18 17 17 17 18 18 18 18 18 18 18 18 14 14 17 18 17 20 18 20 21 21 21 21 21 21 20
17 17 16 17 16 17 17 17 17 17 17 17 17 17 18 18 18 18 18 18 18 18 18 18 18 18 18 19 18 16 13 16 19 18 17 19 19 19 19 19 20 21 20 19 19
16 16 16 16 16 17 17 17 17 17 17 17 17 17 18 19 18 18 18 18 18 18 18 18 18 19 19 19 19 18 15 17 18 20 19 18 18 19 18 16 19 19 20 19 19
16 16 16 16 16 17 17 17 17 17 17 17 18 17 18 18 18 19 19 18 18 18 18 18 19 19 18 17 19 18 19 19 19 19 19 18 19 18 19 18 19 20 20 20 20
15 16 16 16 17 17 17 17 17 17 18 17 18 18 18 18 18 19 19 18 18 18 18 18 18 18 16 17 18 17 18 19 19 19 19 19 18 17 18 19 19 20 20 20 20
15 16 16 16 16 16 17 17 17 18 18 18 18 18 18 17 19 19 19 18 18 18 18 18 18 17 18 18 17 19 18 18 19 19 19 18 18 18 19 19 19 20 20 20 20
16 15 16 16 16 17 17 17 18 18 18 18 18 18 18 19 18 19 19 18 18 18 18 17 17 17 17 17 19 19 17 16 17 19 18 19 16 17 17 18 17 17 18 18 19
16 16 16 16 16 17 17 17 17 17 18 18 18 18 18 19 19 19 18 18 18 18 18 17 17 17 17 18 18 18 17 15 18 18 18 18 15 16 17 17 17 17 17 17 18
15 16 16 16 16 17 17 17 17 17 17 18 18 18 18 19 19 19 19 19 18 18 18 18 17 17 18 15 13 15 14 15 16 18 18 17 16 16 16 15 14 14 15 15 17
15 15 16 16 16 17 17 17 17 17 17 18 17 17 19 19 19 19 19 19 19 18 18 18 17 15 14 13 13 14 14 15 15 17 17 16 15 13 14 14 13 13 13 13 14
15 15 15 16 16 16 17 17 17 17 17 18 19 19 20 19 19 19 19 19 18 18 16 18 15 15 17 17 17 16 16 15 16 18 17 17 14 13 13 13 13 13 12 13 12
15 15 15 16 16 16 17 16 16 16 16 19 19 19 19 19 19 19 19 19 19 16 17 15 15 18 19 17 17 16 15 14 15 16 17 15 14 13 12 12 12 12 11 11 11
14 15 15 16 16 16 16 16 16 16 14 19 19 19 19 19 19 18 19 19 18 17 17 16 18 19 19 17 16 16 15 15 15 15 16 16 14 13 12 13 13 11 11 11 10
14 15 15 15 16 15 15 16 16 15 13 18 18 19 19 19 18 19 19 18 18 17 18 17 19 18 17 17 16 15 16 16 16 14 13 16 11 13 13 13 11 10 10 9 8
13 14 14 15 15 15 15 15 16 16 14 18 18 19 19 18 19 18 18 18 17 17 16 16 17 16 16 16 16 15 16 15 15 15 14 14 10 11 11 11 10 9 9 7 7
12 13 13 14 14 15 15 15 16 14 15 18 18 18 18 18 19 18 18 18 18 17 17 15 17 17 16 16 16 16 15 14 14 13 12 14 12 10 10 10 9 9 7 7 7
12 12 13 13 14 14 14 15 13 13 19 17 17 18 17 17 18 18 18 16 15 15 16 16 16 17 17 16 15 13 11 7 10 9 10 14 11 10 12 11 9 9 7 7 8
11 12 13 13 13 14 14 12 12 17 18 18 18 17 17 17 18 17 17 15 17 16 14 14 15 16 17 16 15 14 12 7 8 8 9 12 10 11 12 10 9 8 7 7 8
9 11 12 15 13 13 13 10 13 17 19 17 18 17 17 17 17 17 16 15 16 16 15 14 15 16 16 16 15 15 12 13 10 11 9 10 13 14 12 10 9 7 7 7 8
9 9 11 14 13 12 9 12 14 19 19 18 16 16 15 15 15 15 15 17 15 16 15 15 14 16 16 16 16 16 14 13 9 8 11 12 12 11 11 10 9 7 7 7 7
8 8 12 13 12 11 8 11 16 19 20 18 17 16 17 15 15 16 16 15 15 15 15 15 13 15 16 15 15 14 14 14 12 11 11 11 11 12 11 10 9 7 7 6 7
6 7 12 13 9 9 10 13 17 18 19 18 18 18 17 15 15 16 16 16 16 15 15 14 12 12 15 15 16 16 15 13 9 12 11 10 11 12 10 9 10 8 8 7 8
5 7 11 11 10 9 12 13 16 17 16 16 16 18 19 15 16 16 13 14 16 15 14 13 12 12 13 13 14 15 15 15 13 10 11 9 11 10 10 9 10 8 8 8 8
6 3 8 10 11 11 12 13 14 17 16 17 16 17 16 16 15 14 12 13 14 13 14 14 11 12 12 13 14 15 15 14 12 10 11 11 12 11 10 9 9 9 8 8 8
4 3 6 7 9 9 11 14 14 14 16 17 15 15 14 14 14 14 11 11 13 12 13 11 11 12 13 13 15 14 14 14 12 12 12 13 15 12 10 9 9 10 9 9 8
4 4 5 7 11 9 10 11 15 15 14 14 14 14 14 13 13 12 11 10 11 10 11 11 11 13 13 13 13 13 13 13 13 13 12 12 13 13 13 12 10 10 9 9 9
4 5 5 5 9 10 11 11 14 15 15 17 14 14 14 14 16 17 15 14 12 10 10 10 10 11 11 13 14 13 13 13 13 13 13 12 12 11 10 11 11 10 10 10 9